Home   Weather   Hartberg   Past weeks

Flag for Austria Past Weather in Hartberg, Styria, Austria — Yesterday and Last 2 Weeks

Now
34 °F

Fog.


Feels Like: 34 °F
Forecast: 33 / 58 °F
Wind: 2 mph from North

Location: Graz-Thalerhof-Flughafen

Current Time: Apr 29, 2017 at 3:54:57 am

Latest Report: Apr 29, 2017 at 3:20 am


Visibility: 0 mi

Pressure: 29.98 "Hg

Humidity: 100%

Dew Point: 34 °F

Location of HartbergLocation

Past Weather in Hartberg — Graph

°F

Hartberg Temperature Yesterday

Maximum temperature yesterday: 48 °F (at 2:50 pm)
Minimum temperature yesterday: 39 °F (at 9:20 pm)
Average temperature yesterday: 44 °F

High & Low Weather Summary for the Past Weeks

 TemperatureHumidityPressure
High68 °F (Apr 25, 11:50 am)100% (Apr 15, 7:20 am)30.42 "Hg (Apr 15, 7:20 am)
Low23 °F (Apr 21, 6:20 am)23% (Apr 21, 3:20 pm)29.71 "Hg (Apr 26, 1:50 am)
Average48 °F64%29.99 "Hg
* Reported Apr 14 2:20 am — Apr 29 2:20 am, Hartberg, Weather by CustomWeather, © 2017

Note: Actual official high and low records may vary slightly from our data, if they occured in-between our weather recording intervals... More about our weather records

Advertising

Hartberg Weather History for the Previous 24 Hours

Scroll right to see more
 ConditionsComfort  
Time TempWeatherWind HumidityBarometerVisibility
2:20 am
Sat, Apr 29
34 °FFog.3 mph100%29.95 "Hg0 mi
1:50 am34 °FPassing clouds.2 mph100%29.95 "Hg0 mi
1:20 am34 °FPassing clouds.2 mph100%29.95 "Hg4 mi
12:50 am37 °FChilly.5 mph100%29.95 "Hg5 mi
12:20 am36 °FLight fog.3 mph100%29.95 "Hg1 mi
11:50 pm
Fri, Apr 28
39 °FFog.3 mph93%29.95 "HgN/A
11:20 pm39 °FClear.2 mph100%29.92 "Hg10 mi
10:50 pm39 °FClear.1 mph93%29.92 "Hg10 mi
10:20 pm41 °FPassing clouds.3 mph93%29.89 "HgN/A
9:50 pm41 °FPassing clouds.3 mph93%29.89 "HgN/A
9:20 pm39 °FPassing clouds.1 mph100%29.89 "HgN/A
8:50 pm41 °FPartly cloudy.1 mph93%29.86 "HgN/A
7:50 pm43 °FSprinkles. Partly sunny.9 mph81%29.86 "HgN/A
7:20 pm45 °FSprinkles. Partly sunny.9 mph87%29.80 "HgN/A
6:50 pm46 °FPartly sunny.2 mph87%29.77 "HgN/A
6:20 pm46 °FPartly sunny.5 mph87%29.77 "HgN/A
5:50 pm46 °FPartly sunny.6 mph87%29.74 "HgN/A
5:20 pm46 °FPartly sunny.7 mph87%29.74 "HgN/A
4:50 pm46 °FPartly sunny.6 mph87%29.74 "HgN/A
4:20 pm46 °FPartly sunny.7 mph87%29.74 "HgN/A
3:50 pm48 °FPartly sunny.7 mph82%29.74 "HgN/A
3:20 pm46 °FPartly sunny.7 mph87%29.71 "HgN/A
2:50 pm48 °FBroken clouds.7 mph87%29.71 "HgN/A
2:20 pm46 °FLight rain. Broken clouds.8 mph87%29.71 "HgN/A
1:50 pm46 °FLight rain. More clouds than sun.3 mph87%29.71 "HgN/A
1:20 pm46 °FLight rain. More clouds than sun.5 mph93%29.71 "HgN/A
12:50 pm45 °FRain. Cloudy.6 mph93%29.71 "HgN/A
12:20 pm45 °FRain. Mostly cloudy.2 mph93%29.71 "HgN/A
11:50 am45 °FLight rain. Cloudy.2 mph93%29.71 "Hg5 mi
11:20 am45 °FLight rain. Cloudy.2 mph93%29.71 "Hg4 mi
10:50 am45 °FRain. More clouds than sun.1 mph93%29.71 "Hg4 mi
10:20 am45 °FRain. More clouds than sun.2 mph93%29.74 "Hg4 mi
9:20 am45 °FRain. Mostly cloudy.3 mph93%29.71 "Hg5 mi
8:50 am43 °FLight rain. More clouds than sun.1 mph100%29.71 "Hg4 mi
8:20 am43 °FRain. More clouds than sun.3 mph100%29.71 "Hg4 mi
7:50 am43 °FRain. More clouds than sun.3 mph93%29.71 "Hg4 mi
7:20 am43 °FLight rain. Fog.1 mph93%29.71 "Hg3 mi
6:50 am43 °FLight rain. Mostly cloudy.3 mph93%29.71 "Hg4 mi
6:20 am43 °FLight rain. Fog.1 mph93%29.71 "Hg3 mi
5:50 am43 °FLight rain. Broken clouds.1 mph93%29.71 "Hg4 mi
5:20 am43 °FLight rain. Partly cloudy.2 mph93%29.74 "Hg6 mi
4:50 am43 °FLight rain. Passing clouds.1 mph93%29.71 "Hg4 mi
4:20 am43 °FRain. Passing clouds.1 mph93%29.74 "Hg4 mi
3:50 am43 °FLight rain. Passing clouds.2 mph93%29.74 "Hg6 mi
3:20 am43 °FRain. Partly cloudy.1 mph93%29.74 "Hg3 mi
Weather by CustomWeather, © 2017

See weather overviewHow to use our weather pages